Location: Solon
(41.3849°N, 81.4081°W)
Time: 02:16:21
(UTC-04:00)

Daily predictions for brighter satellites

Satellite Brightness Start Highest point End
(mag) Time Altitude Azimuth Time Altitude Azimuth Time Altitude Azimuth
FALCON 9 R/B 4.5 03:08:16 58° SE 03:08:16 58° SE 03:34:34 10° E
CENTAUR R/B 3.9 03:29:41 34° ENE 03:29:41 34° ENE 03:33:35 10° NE
Cosmos 1980 Rocket 4.1 03:34:34 25° NNE 03:34:34 25° NNE 03:36:52 10° NNE
USA 215 4.4 03:25:27 10° E 03:31:25 39° NNE 03:33:35 31° NNW
CZ-2D R/B 4.1 03:30:46 10° NNE 03:33:14 26° NE 03:33:14 26° NE
SL-16 R/B 4.0 03:45:14 30° N 03:45:14 30° N 03:48:12 10° N
Resurs 1-4 Rocket 4.1 03:39:06 10° NNE 03:41:18 25° NNE 03:41:18 25° NNE
Cosmos 2263 Rocket 3.8 03:44:24 10° N 03:49:15 29° NE 03:49:51 29° ENE
Cosmos 2322 Rocket 2.5 04:42:37 57° N 04:42:37 57° N 04:47:13 10° NNE
Lacrosse 5 3.3 04:44:39 29° SE 04:44:39 29° SE 04:47:06 10° SE
MOS 1 Rocket 4.0 04:39:09 10° NNE 04:43:22 52° ENE 04:43:22 52° ENE
SL-16 R/B 2.4 04:45:38 60° NNW 04:45:38 60° NNW 04:50:28 10° NNE
Okean O Rocket 2.9 04:43:04 10° NNE 04:47:12 37° E 04:47:43 35° ESE
Cosmos 2184 Rocket 4.4 04:43:37 10° N 04:49:45 60° E 04:55:54 10° SSE
CZ-4B R/B 4.0 04:56:49 10° NNE 04:59:35 38° ENE 04:59:35 38° ENE
USA 215 3.1 05:07:31 10° SE 05:14:05 77° SW 05:20:41 10° NW
Cosmos 2360 Rocket 2.1 05:12:49 51° SSW 05:14:18 84° ESE 05:19:59 10° NNE
Cosmos 1455 Rocket 3.3 05:10:06 10° N 05:14:29 69° E 05:17:02 25° SSE
CZ-2D R/B 3.7 05:11:34 10° NNW 05:14:34 22° NW 05:14:34 22° NW
Cosmos 1812 3.8 05:17:22 35° N 05:17:22 35° N 05:19:46 10° N
Cosmos 1980 Rocket 4.0 05:16:20 16° NW 05:16:20 16° NW 05:19:27 10° N
CENTAUR R/B 3.4 05:16:52 31° WNW 05:18:04 33° NW 05:24:18 10° NNE
Meteor 1-12 Rocket 4.3 05:13:26 10° N 05:19:07 80° E 05:24:48 10° SSE
MOS 1-B 4.4 05:13:23 10° N 05:19:07 60° WNW 05:20:10 51° WSW
Cosmos 1975 Rocket 4.3 05:20:50 29° NNW 05:20:50 29° NNW 05:23:19 10° N
ADEOS Rocket 3.8 05:14:46 10° N 05:18:51 28° NW 05:18:51 28° NW
IRS-1C Rocket 4.2 05:14:34 10° NNE 05:19:51 72° ESE 05:22:50 26° S
ARIANE 5 R/B 4.3 05:17:15 10° NNW 05:19:16 17° NW 05:19:16 17° NW
PAYLOAD B 4.3 05:17:43 10° NNE 05:23:21 79° ESE 05:26:57 23° S
Resurs 1-4 Rocket 3.9 05:20:05 10° NNW 05:22:24 17° NW 05:22:24 17° NW
Tiangong 2 2.2 05:25:36 44° ENE 05:25:36 44° ENE 05:27:56 10° E
Meteor 1-18 Rocket 4.1 05:26:58 40° SSW 05:28:57 71° W 05:34:31 10° N
Cosmos 2263 Rocket 3.1 05:28:06 10° NW 05:38:12 11° S 05:38:25 10° S
Cosmos 1340 2.5 05:34:52 73° WSW 05:35:06 77° W 05:38:55 10° N
Cosmos 2333 Rocket 4.3 05:31:15 10° SSE 05:35:47 25° ESE 05:40:21 10° NE
Meteor 1-31 Rocket 4.5 05:33:06 10° NNE 05:36:32 32° E 05:39:58 10° SSE
Cosmos 1536 Rocket 3.5 05:36:48 31° SSW 05:38:54 84° W 05:43:24 10° N
Cosmos 2327 Rocket 4.5 05:33:11 10° NNW 05:39:23 59° W 05:45:25 10° S
Cosmos 1743 3.5 05:36:23 10° N 05:40:11 51° E 05:43:56 10° SSE
MTI 4.3 05:41:14 46° NNW 05:41:14 46° NNW 05:43:42 10° NNW
ISS -3.6 05:40:53 60° SSE 05:40:53 60° SSE 05:43:43 10° SE
ATLAS 5 CENTAUR R/B 4.4 05:36:29 10° NNW 05:41:29 28° NE 05:46:50 10° E
Okean 1 3.5 05:44:04 48° W 05:44:22 50° W 05:48:21 10° N
Cosmos 1610 Rocket 4.4 05:38:38 10° NNW 05:44:52 73° W 05:51:09 10° S
Cosmos 2322 3.7 05:42:22 32° SW 05:45:01 65° WNW 05:50:44 10° NNE
EO 1 Del DPAF 3.2 05:44:26 36° SSW 05:45:43 57° W 05:49:32 10° NNW
Lacrosse 4 Rocket 1.4 05:41:45 10° NNW 05:45:57 80° ENE 05:50:13 10° SSE
CZ-2C R/B 3.6 05:43:31 10° S 05:48:07 69° WSW 05:52:40 10° NNW
Nadezhda 1 Rocket 3.9 05:45:26 17° SSW 05:50:09 61° W 05:56:10 10° N
DELTA 2 R/B (1) 4.1 05:49:49 27° SW 05:52:31 50° SSE 05:57:51 10° E
Cosmos 1975 3.1 05:49:44 10° NNW 05:53:37 44° W 05:55:04 30° SW
ADEOS II 2.1 05:48:28 10° N 05:53:39 60° WNW 05:57:25 19° SSW
PSLV R/B 3.7 05:52:30 10° N 05:56:44 55° WNW 05:59:09 24° SW
Cosmos 1777 Rocket 4.4 05:54:15 10° NW 05:59:09 40° WSW 06:04:02 10° S
Cosmos 2341 Rocket 4.1 05:52:59 10° N 05:59:16 82° E 06:05:29 10° S
Cosmos 2333 4.2 05:58:22 10° SSW 06:04:00 85° ESE 06:09:44 10° NNE
Cosmos 1844 4.3 06:01:07 10° NNW 06:06:52 63° ENE 06:12:29 10° SE
CZ-4B DEB 4.5 06:01:55 10° N 06:07:16 48° WNW 06:12:00 13° SW
IRAS Rocket 4.5 06:06:13 10° N 06:11:32 49° WNW 06:16:40 11° SW
Cosmos 1500 4.3 06:10:15 10° NW 06:13:23 24° W 06:13:39 24° W
CZ-4B R/B 3.6 06:08:06 10° N 06:13:25 43° WNW 06:18:19 12° SW
Meteor PRIRODA 3.9 06:15:47 10° N 06:19:26 49° WNW 06:23:04 10° SSW
Okean O Rocket 3.0 06:19:58 10° NNW 06:23:20 21° WNW 06:25:11 17° W
Lacrosse 5 3.3 06:23:59 16° WSW 06:24:24 16° WSW 06:27:28 10° SSW
Okean 2 4.2 06:22:01 10° S 06:26:05 57° E 06:30:11 10° NNE
Meteor 1-23 Rocket 4.5 06:20:41 10° S 06:26:28 78° E 06:32:16 10° NNE
Cosmos 2322 Rocket 4.1 06:24:26 10° WNW 06:26:42 12° NW 06:28:59 10° NNW
Cosmos 1980 4.5 06:22:27 10° S 06:27:55 55° ESE 06:33:25 10° NNE
SL-16 R/B 4.1 06:27:44 10° WNW 06:29:59 12° NW 06:32:16 10° NNW
Cosmos 2208 Rocket 4.4 06:25:24 10° SW 06:30:36 46° WNW 06:35:52 10° N
COSMOS 2428 2.9 06:25:43 10° SW 06:31:14 52° WNW 06:36:49 10° NNE
Okean-O 2.7 06:27:24 10° N 06:31:47 59° WNW 06:36:08 10° SSW
Aureole 2 Rocket 3.9 06:28:56 10° S 06:32:31 42° ESE 06:35:49 10° NE
CZ-4B R/B 4.3 06:29:18 10° N 06:33:42 55° WNW 06:38:06 10° SSW
Cosmos 2285 Rocket 4.2 06:27:42 10° SSW 06:34:07 85° ESE 06:40:37 10° NNE
Radarsat Rocket 4.3 06:29:27 10° NNE 06:35:29 70° ESE 06:41:15 10° S
Cosmos 1867 4.2 06:30:57 10° NNW 06:36:23 60° NE 06:41:44 10° SE
Meteor 1-19 Rocket 4.5 06:32:39 10° SSW 06:38:04 49° WNW 06:43:36 10° N
COSMO-SKYMED 1 2.7 06:33:48 10° SSE 06:38:08 80° ENE 06:42:29 10° N
ERS-2 2.9 06:35:23 10° N 06:38:43 32° WNW 06:42:02 10° SW
Cosmos 1238 Rocket 3.5 06:37:42 12° SW 06:39:46 20° WNW 06:42:05 10° NNW
Meteor 2-9 Rocket 4.2 06:35:03 10° NNW 06:40:44 70° W 06:46:15 10° S
Meteor 1-15 Rocket 4.4 06:36:00 10° N 06:41:58 87° E 06:47:53 10° S
Cosmos 2219 Rocket 2.2 06:36:44 10° SSW 06:42:18 73° WNW 06:47:54 10° NNE
Geosat 4.1 06:40:10 10° SSE 06:45:12 88° ENE 06:50:16 10° NNW
Cosmos 1726 Rocket 3.8 06:43:07 10° N 06:47:35 78° E 06:52:02 10° S
Cosmos 2228 4.4 06:43:36 10° N 06:47:45 44° ENE 06:51:54 10° SSE
Cosmos 1437 2.7 06:45:06 10° S 06:48:22 87° W 06:51:40 10° N
Cosmos 1844 Rocket 3.0 06:46:48 10° NW 06:52:02 42° WSW 06:57:15 10° S
Cosmos 1959 Rocket 4.4 06:46:28 10° N 06:52:34 76° W 06:58:40 10° S
Meteor 1-28 Rocket 3.2 06:49:29 10° SSE 06:53:17 87° W 06:57:07 10° NNW
Cosmos 1892 Rocket 3.6 06:49:30 10° S 06:53:49 85° E 06:58:12 10° N
Thor Agena Rocket 3.8 06:49:39 10° S 06:54:29 45° W 06:59:20 10° NNW
Cosmos 1025 Rocket 3.4 06:51:26 10° SSW 06:55:37 45° WNW 06:59:52 10° N
NOSS 0 Rocket 4.0 06:51:47 10° SSW 06:57:58 81° WNW 07:04:11 10° NNE
Cosmos 2360 Rocket 3.8 06:55:32 10° W 06:59:03 17° NW 07:02:36 10° N
Cosmos 2278 Rocket 2.3 06:54:10 10° NNW 06:59:52 88° WSW 07:05:33 10° SSE
Meteor 2-4 Rocket 4.1 06:55:17 10° SSW 07:00:37 43° WNW 07:05:51 10° N
Cosmos 2366 rocket 4.1 06:56:22 10° NNW 07:02:41 72° W 07:09:00 10° S
